[[{"header":{"parameterUnit":"m.s-1","parameterCategory":1,"la1":30.2991,"la2":30.254,"lo1":-89.0895,"lo2":-89.0444,"dy":0.0017,"dx":0.0017,"nx":28,"ny":28,"refTime":"2024-05-07T09:00:00:Z","depth":0,"parameterNumber":2,"parameterNumberName":"U-component_of_WINDS"},"data":[0,0,0,0,0,0,0,0,0,0,0,0,0,0,0,0,0,0,0,0,0,0,0,0,0,0,0,0,0,0,0,0,0,0,0,0,0,0,0,0,0,0,0,0,0,0,0,0,0,0,0,0,0,0,0,0,0,0,-2.3466,-2.3466,0,-2.3467,-2.3467,-2.3467,-2.3449,-2.3449,-2.3449,-2.3448,-2.345,-2.345,-2.3451,0,0,0,0,0,0,0,0,0,0,0,0,0,-2.3451,-2.3451,-2.3466,-2.3466,-2.3466,-2.3467,-2.3467,-2.3467,-2.345,-2.3449,-2.3448,-2.3448,-2.345,-2.345,-2.3451,0,0,0,0,0,0,0,0,0,0,0,0,0,-2.3455,-2.3451,-2.3466,-2.3457,-2.3457,-2.3467,-2.3467,-2.3467,-2.345,-2.3449,-2.3448,-2.3448,-2.345,-2.345,-2.3451,-2.3469,0,0,-2.3453,-2.3454,0,0,0,0,0,0,0,0,-2.3455,-2.3456,-2.3459,-2.3458,-2.3457,-2.3457,-2.3462,-2.3468,-2.345,-2.3452,-2.3448,-2.3447,-2.3453,-2.3453,-2.3455,-2.347,-2.347,-2.3453,-2.3454,-2.3454,-2.3454,0,0,0,0,0,0,0,-2.3455,-2.3456,-2.3466,-2.3459,-2.3458,-2.3454,-2.3454,-2.3463,-2.3457,-2.3452,-2.3451,-2.3451,-2.3452,-2.3454,-2.3455,-2.347,-2.3453,-2.3454,-2.3454,-2.3455,-2.3499,-2.35,0,0,0,0,0,0,-2.3455,-2.3455,-2.3466,-2.3466,-2.3454,-2.3455,-2.3455,-2.3458,-2.3456,-2.3456,-2.3452,-2.345,-2.3454,-2.3454,-2.3455,-2.3476,-2.3454,-2.3455,-2.3455,-2.3498,-2.3499,-2.35,0,0,0,0,0,0,-2.3455,-2.3456,-2.3466,-2.346,-2.3461,-2.3456,-2.346,-2.3458,-2.346,-2.3456,-2.3455,-2.3455,-2.3453,-2.3454,-2.3466,-2.3476,-2.3455,-2.3456,-2.3497,-2.3499,-2.35,-2.3518,0,0,0,0,0,0,-2.3455,-2.3456,-2.3463,-2.3461,-2.3462,-2.3476,-2.346,-2.3459,-2.3461,-2.3459,-2.3459,-2.3458,-2.3453,-2.3465,-2.3467,-2.3476,-2.3456,-2.3496,-2.3498,-2.3499,-2.3516,-2.3519,-2.3522,0,0,0,0,0,-2.3454,-2.3468,-2.3463,-2.3465,-2.347,-2.3477,-2.3478,-2.3471,-2.3462,-2.3469,-2.3466,-2.3458,-2.3475,-2.3466,-2.3468,-2.3478,-2.3496,-2.3498,-2.3499,-2.3515,-2.3519,-2.3522,0,0,0,0,0,0,-2.3472,-2.3468,-2.3462,-2.3476,-2.3477,-2.3474,-2.3482,-2.3475,-2.3479,-2.3477,-2.3469,-2.3469,-2.3482,-2.3482,-2.3472,-2.3496,-2.3484,-2.3486,-2.3495,-2.3499,-2.3502,-2.3501,-2.3457,0,0,0,0,0,-2.3478,-2.3483,-2.348,-2.3492,-2.3493,-2.3488,-2.349,-2.3485,-2.3486,-2.3486,-2.3485,-2.3486,-2.3492,-2.3496,-2.3501,-2.3517,-2.3516,-2.3525,-2.3528,-2.353,-2.3531,-2.354,-2.3543,-2.3505,-2.3505,-2.3505,0,0,-2.3489,-2.3487,-2.3492,-2.3496,-2.3496,-2.3502,-2.3488,-2.3495,-2.35,-2.3488,-2.3498,-2.3497,-2.3499,-2.3513,-2.3519,-2.3512,-2.3542,-2.3532,-2.3534,-2.3534,-2.3542,-2.3545,-2.3548,-2.3507,-2.3506,-2.3506,0,0,-2.3513,-2.3512,-2.3522,-2.3523,-2.3523,-2.352,-2.3522,-2.3521,-2.3519,-2.353,-2.3521,-2.3527,-2.3537,-2.3537,-2.3539,-2.3564,-2.3557,-2.3567,-2.3581,-2.3589,-2.3592,-2.3594,-2.3603,-2.3606,-2.3568,-2.3568,-2.3568,0,-2.3527,-2.3536,-2.3529,-2.3536,-2.3539,-2.3528,-2.3538,-2.3539,-2.3541,-2.3543,-2.3536,-2.3548,-2.3548,-2.3562,-2.3568,-2.357,-2.3573,-2.3566,-2.3592,-2.3595,-2.3597,-2.3604,-2.3608,-2.3569,-2.3569,-2.3569,-2.3569,0,-2.3553,-2.3559,-2.3567,-2.3569,-2.3572,-2.3581,-2.3576,-2.358,-2.3575,-2.3573,-2.3584,-2.3584,-2.3588,-2.3592,-2.3587,-2.3605,-2.3601,-2.3593,-2.3581,-2.3602,-2.3608,-2.3611,-2.3571,-2.3571,-2.357,-2.357,0,0,-2.3586,-2.3584,-2.3587,-2.3588,-2.3588,-2.3593,-2.3602,-2.3606,-2.3609,-2.3612,-2.3619,-2.3628,-2.3621,-2.3623,-2.3619,-2.3626,-2.3645,-2.3618,-2.3617,-2.3622,-2.3664,-2.3668,-2.3672,-2.364,-2.3641,-2.3641,-2.3663,0,-2.3608,-2.3623,-2.3617,-2.3632,-2.3637,-2.3628,-2.3636,-2.3637,-2.3635,-2.364,-2.3638,-2.3644,-2.3635,-2.3636,-2.3643,-2.3641,-2.3653,-2.364,-2.3647,-2.3647,-2.3645,-2.3676,-2.368,-2.3701,-2.3666,-2.3667,-2.3667,0,-2.3636,-2.3638,-2.3654,-2.3653,-2.3655,-2.3662,-2.3665,-2.367,-2.3671,-2.367,-2.3672,-2.3666,-2.3675,-2.3664,-2.3677,-2.3668,-2.367,-2.367,-2.3671,-2.367,-2.3657,-2.3674,-2.3707,-2.371,-2.3671,-2.3671,-2.3671,0,-2.3657,-2.3665,-2.3675,-2.3676,-2.3675,-2.368,-2.368,-2.3681,-2.3684,-2.3687,-2.3689,-2.3694,-2.3696,-2.37,-2.3695,-2.3688,-2.3708,-2.3697,-2.3707,-2.3707,-2.371,-2.371,-2.3743,-2.3714,-2.3714,-2.3714,-2.3714,0,-2.3682,-2.3691,-2.3685,-2.3691,-2.3701,-2.3695,-2.3706,-2.3705,-2.3706,-2.3712,-2.3704,-2.371,-2.3705,-2.371,-2.3707,-2.3717,-2.3719,-2.3718,-2.3716,-2.3717,-2.3717,-2.3718,-2.3716,-2.3715,-2.3715,-2.3715,-2.3714,0,-2.3707,-2.3703,-2.3713,-2.3712,-2.3712,-2.3719,-2.3718,-2.3724,-2.3722,-2.373,-2.3731,-2.3728,-2.3734,-2.373,-2.3737,-2.3735,-2.3748,-2.3745,-2.3747,-2.3746,-2.3755,-2.3754,-2.3789,-2.3793,-2.3763,-2.3763,-2.3764,0,-2.3722,-2.3729,-2.3729,-2.3732,-2.3732,-2.3737,-2.374,-2.3735,-2.3738,-2.374,-2.3746,-2.3751,-2.3755,-2.3765,-2.3764,-2.3769,-2.3766,-2.3778,-2.3766,-2.3767,-2.3764,-2.3763,-2.3764,-2.3779,-2.378,-2.378,-2.378,0,-2.375,-2.3747,-2.3751,-2.3755,-2.3758,-2.3761,-2.3763,-2.3766,-2.3761,-2.3765,-2.3771,-2.3774,-2.378,-2.3785,-2.379,-2.379,-2.3784,-2.3784,-2.3786,-2.3787,-2.3787,-2.3786,-2.3752,-2.3783,-2.3783,-2.3782,-2.3782,-2.3782,-2.377,-2.3775,-2.3775,-2.378,-2.3781,-2.3783,-2.3788,-2.3787,-2.3791,-2.3795,-2.3793,-2.3799,-2.3801,-2.3806,-2.3807,-2.3813,-2.3808,-2.3812,-2.3812,-2.3813,-2.3814,-2.3787,-2.3814,-2.3814,-2.3813,-2.3813,-2.3813,0,-2.3795,-2.3795,-2.38,-2.3802,-2.3806,-2.38,-2.3802,-2.3806,-2.3812,-2.3814,-2.3817,-2.3824,-2.3829,-2.3829,-2.3833,-2.3838,-2.3835,-2.3839,-2.3838,-2.3838,-2.3818,-2.3815,-2.3841,-2.3841,-2.3841,-2.3841,-2.3841,-2.3841,-2.3809,-2.3818,-2.3816,-2.3825,-2.3825,-2.3831,-2.3833,-2.3835,-2.3836,-2.3843,-2.3848,-2.3847,-2.3848,-2.3853,-2.3857,-2.3857,-2.3858,-2.3863,-2.3862,-2.3843,-2.384,-2.3837,-2.3834,-2.3864,-2.3864,-2.3881,-2.3882,-2.3882]},{"header":{"parameterUnit":"m.s-1","parameterCategory":1,"la1":30.2991,"la2":30.254,"lo1":-89.0895,"lo2":-89.0444,"dy":0.0017,"dx":0.0017,"nx":28,"ny":28,"refTime":"2024-05-07T09:00:00:Z","depth":0,"parameterNumber":3,"parameterNumberName":"V-component_of_WINDS"},"data":[0,0,0,0,0,0,0,0,0,0,0,0,0,0,0,0,0,0,0,0,0,0,0,0,0,0,0,0,0,0,0,0,0,0,0,0,0,0,0,0,0,0,0,0,0,0,0,0,0,0,0,0,0,0,0,0,0,0,6.2503,6.2504,0,6.2568,6.2568,6.2569,6.2514,6.2512,6.251,6.2508,6.2569,6.2572,6.2576,0,0,0,0,0,0,0,0,0,0,0,0,0,6.2328,6.2332,6.2503,6.2504,6.2505,6.2568,6.2568,6.2569,6.2515,6.2512,6.2509,6.2507,6.2568,6.2572,6.2576,0,0,0,0,0,0,0,0,0,0,0,0,0,6.24,6.2333,6.2503,6.2485,6.2484,6.2567,6.2568,6.2569,6.2515,6.2512,6.2509,6.2505,6.2566,6.2571,6.2577,6.2679,0,0,6.2594,6.2596,0,0,0,0,0,0,0,0,6.2396,6.2406,6.2487,6.2487,6.2486,6.253,6.2529,6.2606,6.2516,6.2503,6.2508,6.2504,6.2558,6.2564,6.2583,6.2682,6.2685,6.2595,6.2598,6.26,6.2602,0,0,0,0,0,0,0,6.2391,6.2403,6.2528,6.2488,6.2487,6.2473,6.2479,6.2543,6.2549,6.2504,6.2501,6.2509,6.2557,6.2578,6.2585,6.2686,6.2594,6.2599,6.2603,6.2605,6.2872,6.2875,0,0,0,0,0,0,6.2388,6.2399,6.2526,6.253,6.2432,6.2479,6.2486,6.2519,6.2548,6.2549,6.2512,6.2506,6.257,6.2578,6.2586,6.2709,6.26,6.2606,6.2609,6.2868,6.2873,6.2877,0,0,0,0,0,0,6.2385,6.24,6.2524,6.2464,6.2479,6.2485,6.2523,6.2522,6.2543,6.2554,6.2554,6.2533,6.2568,6.2579,6.2657,6.271,6.2608,6.2613,6.2864,6.287,6.2875,6.2953,0,0,0,0,0,0,6.238,6.2399,6.2439,6.2465,6.2482,6.2595,6.2526,6.2526,6.2554,6.2547,6.2574,6.2575,6.2566,6.2649,6.2663,6.2716,6.2618,6.2859,6.2866,6.2873,6.2946,6.2961,6.2974,0,0,0,0,0,6.2374,6.2457,6.2441,6.2457,6.2532,6.2598,6.2607,6.2597,6.2558,6.2598,6.2605,6.2574,6.2702,6.2658,6.2672,6.2728,6.2856,6.2864,6.2872,6.294,6.2958,6.2973,0,0,0,0,0,0,6.2435,6.246,6.2443,6.2538,6.2567,6.2589,6.2638,6.2617,6.2656,6.2647,6.2632,6.2638,6.2721,6.2732,6.2682,6.2829,6.2772,6.2784,6.2819,6.2836,6.285,6.2845,6.2622,0,0,0,0,0,6.246,6.2513,6.2531,6.2613,6.2629,6.2631,6.2659,6.265,6.2678,6.2689,6.2702,6.2729,6.2776,6.2806,6.2849,6.2948,6.2953,6.2993,6.3007,6.3018,6.3028,6.3082,6.31,6.2904,6.2904,6.2904,0,0,6.2511,6.2531,6.2565,6.2626,6.2647,6.2701,6.2642,6.2701,6.274,6.2697,6.2773,6.2784,6.2813,6.2902,6.2942,6.2914,6.3084,6.3029,6.3038,6.3042,6.3092,6.3111,6.3127,6.291,6.2909,6.2908,0,0,6.2632,6.2653,6.2724,6.2747,6.278,6.2782,6.2799,6.2825,6.2831,6.2907,6.2876,6.2922,6.3002,6.3025,6.3047,6.3178,6.3151,6.3193,6.3264,6.3317,6.3332,6.3345,6.3392,6.341,6.3203,6.3203,6.3203,0,6.269,6.2772,6.2762,6.2825,6.2852,6.2818,6.2889,6.2911,6.2956,6.2975,6.2944,6.3045,6.3062,6.3156,6.3189,6.3208,6.3226,6.3189,6.3331,6.3344,6.3357,6.3401,6.3419,6.3208,6.3207,6.3207,6.3206,0,6.2843,6.29,6.2953,6.3,6.3033,6.31,6.3099,6.3133,6.3121,6.3125,6.3203,6.3223,6.327,6.3292,6.3279,6.3385,6.3366,6.3333,6.3276,6.3381,6.3422,6.3439,6.3215,6.3213,6.3211,6.321,0,0,6.3003,6.3045,6.3065,6.3086,6.3121,6.3164,6.3229,6.3277,6.3307,6.334,6.3393,6.3463,6.3433,6.3458,6.3448,6.3493,6.3597,6.3455,6.3455,6.348,6.3714,6.3739,6.3759,6.3579,6.3583,6.3585,6.3712,0,6.3125,6.324,6.3234,6.334,6.3393,6.3362,6.3418,6.3445,6.3452,6.3496,6.3502,6.3552,6.3508,6.3523,6.3567,6.3575,6.3643,6.3566,6.3628,6.363,6.3622,6.3781,6.3807,6.3925,6.3728,6.3731,6.3733,0,6.3283,6.3324,6.3437,6.3466,6.3487,6.3538,6.3582,6.3626,6.3656,6.3657,6.3686,6.3668,6.3733,6.3675,6.3763,6.371,6.3735,6.3743,6.3747,6.3752,6.3688,6.379,6.3963,6.3981,6.3758,6.3756,6.3754,0,6.3389,6.3472,6.355,6.357,6.3605,6.3641,6.3657,6.3684,6.3714,6.3752,6.3771,6.3815,6.3839,6.3874,6.3868,6.3827,6.3958,6.39,6.396,6.3961,6.3989,6.3987,6.4168,6.4006,6.4005,6.4005,6.4005,0,6.3527,6.3597,6.3599,6.3647,6.3725,6.3716,6.3793,6.3804,6.3829,6.3878,6.3853,6.3899,6.389,6.3936,6.3932,6.4005,6.4016,6.4018,6.4016,6.4021,6.4021,6.4037,6.4028,6.401,6.4009,6.4008,6.4007,0,6.3658,6.3662,6.3745,6.3773,6.3781,6.3837,6.386,6.3905,6.391,6.3972,6.3986,6.3993,6.4046,6.4045,6.4104,6.4101,6.4192,6.418,6.4183,6.418,6.4241,6.4236,6.4439,6.4465,6.4285,6.4287,6.4289,0,6.3745,6.3799,6.3833,6.3865,6.3884,6.3936,6.3967,6.396,6.3993,6.4032,6.4073,6.4124,6.4164,6.425,6.4259,6.4305,6.4294,6.4362,6.4301,6.4304,6.4295,6.4292,6.4298,6.4374,6.4376,6.4378,6.4379,0,6.39,6.39,6.3947,6.3995,6.4033,6.4069,6.4103,6.413,6.4127,6.4165,6.4221,6.4252,6.4314,6.4365,6.4409,6.4423,6.4401,6.4399,6.4415,6.442,6.4419,6.4421,6.4216,6.4394,6.4392,6.4391,6.439,6.439,6.4012,6.4059,6.4091,6.4144,6.4169,6.4201,6.4246,6.4257,6.4303,6.4354,6.4347,6.4409,6.4437,6.4495,6.4514,6.4561,6.4536,6.456,6.4566,6.4572,6.4579,6.4412,6.4568,6.4568,6.4568,6.4567,6.4567,0,6.4166,6.4186,6.4234,6.4284,6.4325,6.4303,6.4339,6.4375,6.443,6.4459,6.4501,6.4564,6.4613,6.4628,6.4675,6.471,6.4701,6.4723,6.472,6.4724,6.4598,6.4579,6.4729,6.4729,6.4729,6.4729,6.4729,6.4729,6.4251,6.433,6.4333,6.4424,6.4442,6.4503,6.4526,6.4556,6.458,6.4652,6.4694,6.4704,6.4727,6.4776,6.4821,6.4823,6.4842,6.4868,6.4867,6.4749,6.4733,6.4717,6.4699,6.4872,6.4872,6.4989,6.499,6.4991]}]]